Date,TemperatureHighF,TemperatureAvgF,TemperatureLowF,DewpointHighF,DewpointAvgF,DewpointLowF,HumidityHigh,HumidityAvg,HumidityLow,PressureMaxIn,PressureMinIn,WindSpeedMaxMPH,WindSpeedAvgMPH,GustSpeedMaxMPH,PrecipitationSumIn
2013-1-1,38.0,30.7,23.7,36.7,28.0,19.3,100,89,83,30.29,30.02,8,4,13,0.00
2013-1-2,39.7,29.5,19.7,29.4,23.5,16.7,91,79,66,30.30,30.18,4,1,9,0.00
2013-1-3,45.0,34.3,26.3,30.4,26.3,23.8,92,74,48,30.45,30.28,4,1,11,0.01
2013-1-4,49.2,35.7,23.8,28.6,24.9,21.3,91,67,41,30.45,30.29,4,1,10,0.00
2013-1-5,48.2,41.3,36.4,34.5,31.0,24.2,79,67,54,30.29,30.13,5,2,13,0.00
2013-1-6,49.2,38.2,30.3,29.7,23.7,21.8,79,58,37,30.40,30.25,6,1,10,0.00
2013-1-7,52.1,39.7,28.7,30.7,26.5,20.5,76,60,42,30.32,30.07,8,2,16,0.00
2013-1-8,56.2,44.9,35.9,45.4,35.3,26.5,93,70,50,30.15,29.99,7,2,12,0.13
2013-1-9,54.5,49.5,44.9,45.9,43.3,39.1,95,81,57,30.29,30.11,5,3,13,0.02
2013-1-10,55.8,51.9,49.1,53.7,49.1,42.8,96,90,73,30.11,29.74,4,2,10,0.25
2013-1-11,69.2,58.9,45.8,51.2,47.0,43.3,93,66,46,29.80,29.62,9,5,18,0.00
2013-1-12,61.4,37.7,25.8,51.5,24.5,-99.9,88,66,31,30.09,29.74,12,-26,23,0.29
2013-1-13,31.3,25.4,19.7,20.2,15.5,10.9,79,66,52,30.39,29.99,6,1,8,0.00
2013-1-14,34.2,26.1,19.2,19.2,15.2,11.8,76,64,46,30.50,30.33,6,3,11,0.01
2013-1-15,34.6,27.1,19.5,20.3,15.8,11.8,84,64,41,30.34,30.19,7,3,12,0.00
2013-1-16,47.7,34.1,20.4,21.8,18.5,14.8,84,55,34,30.22,30.09,4,1,9,0.01
2013-1-17,53.6,42.4,32.0,32.9,28.7,19.9,76,59,41,30.45,30.19,8,2,15,0.00
2013-1-18,57.7,45.2,33.2,33.5,30.7,26.7,77,58,38,30.46,30.14,9,4,18,0.00
2013-1-19,65.6,51.8,42.1,38.1,32.1,-99.9,72,52,35,30.15,30.02,6,-20,12,0.00
2013-1-20,62.8,46.9,32.0,42.3,31.1,17.6,74,55,45,30.26,30.06,10,3,18,0.00
2013-1-21,40.1,31.7,23.9,17.8,16.0,13.3,65,53,37,30.41,30.26,8,3,15,0.00
2013-1-22,52.9,36.8,21.7,30.8,23.3,15.6,79,60,42,30.31,30.15,5,2,10,0.00
2013-1-23,61.2,45.6,31.0,43.6,34.5,25.2,80,66,50,30.23,30.08,5,1,10,0.00
2013-1-24,44.8,38.4,34.6,35.6,23.5,19.0,70,55,47,30.25,30.06,7,4,15,0.00
2013-1-25,49.7,39.9,32.0,30.5,26.4,22.8,74,59,44,30.23,30.09,4,1,9,0.00
2013-1-26,53.3,45.2,35.1,36.0,31.0,26.6,73,58,44,30.22,30.03,8,3,15,0.00
2013-1-27,61.0,53.6,45.9,56.9,49.6,35.8,95,87,66,30.06,29.81,9,6,18,0.01
2013-1-28,74.8,67.8,59.0,63.3,61.5,56.1,90,81,64,29.86,29.67,11,6,21,0.00
2013-1-29,70.6,58.0,41.7,63.1,53.8,37.8,95,86,66,29.67,29.36,11,4,18,0.89
2013-1-30,41.7,36.9,30.1,37.4,27.6,22.6,85,69,55,30.05,29.53,13,6,20,0.02
2013-1-31,49.0,33.0,22.7,29.6,22.1,10.4,85,65,43,30.45,30.00,11,3,18,0.00
2013-2-1,44.2,30.3,18.1,22.5,12.9,3.9,65,49,30,30.46,30.14,6,2,14,0.00
2013-2-2,58.2,43.7,30.0,34.9,29.1,22.3,79,58,38,30.27,30.15,7,1,12,0.00
2013-2-3,56.4,49.2,41.1,32.2,27.9,23.4,65,45,31,30.28,29.88,5,3,12,0.00
2013-2-4,65.9,55.7,42.7,39.7,34.7,30.0,68,46,29,29.91,29.76,8,3,16,0.01
2013-2-5,67.4,50.8,34.5,42.3,34.3,29.5,83,57,28,30.00,29.86,4,1,7,0.00
2013-2-6,64.4,53.6,41.0,51.8,41.2,32.9,79,63,52,30.01,29.83,10,4,16,0.00
2013-2-7,59.0,51.9,43.6,54.7,47.2,36.2,93,84,71,30.11,29.77,11,4,18,0.05
2013-2-8,50.2,41.4,34.1,36.3,33.0,30.1,92,73,53,30.30,30.11,9,2,15,0.01
2013-2-9,44.0,41.3,38.9,42.4,36.0,33.1,94,82,68,30.13,29.69,8,4,15,0.04
2013-2-10,61.2,51.9,41.8,51.3,35.5,25.7,96,59,28,30.01,29.58,10,4,19,0.10
2013-2-11,52.7,42.8,35.0,28.2,20.9,-99.9,66,47,34,30.19,30.00,6,-38,14,0.00
2013-2-12,42.1,34.6,33.1,36.1,21.2,-99.9,94,72,58,30.09,29.92,8,-73,14,0.36
2013-2-13,56.2,44.3,33.8,37.1,32.7,26.0,95,67,41,30.03,29.91,4,2,10,0.02
2013-2-14,58.9,47.6,36.5,35.4,30.1,23.1,66,51,40,30.17,29.93,9,2,17,0.00
2013-2-15,45.0,37.3,29.6,31.5,19.4,12.2,75,50,28,30.38,30.17,11,4,17,0.00
2013-2-16,45.5,36.3,26.2,26.5,17.5,12.2,74,48,32,30.37,30.04,10,3,15,0.00
2013-2-17,68.5,52.8,37.8,35.5,30.6,21.5,67,45,27,30.04,29.70,12,5,20,0.00
2013-2-18,61.9,42.9,39.4,47.5,9.8,-99.9,73,42,42,30.11,29.55,14,-183,23,0.00
2013-2-19,51.2,41.0,30.0,26.1,23.3,20.8,71,50,35,30.32,30.11,5,1,12,0.00
2013-2-20,39.8,35.0,32.1,32.8,28.4,20.1,93,79,49,30.25,29.97,5,2,8,0.49
2013-2-21,35.5,33.0,26.6,34.0,30.7,20.1,95,91,76,29.98,29.65,9,3,16,1.08
2013-2-22,37.3,27.7,20.9,21.7,18.9,16.0,82,70,49,30.14,29.94,6,3,11,0.03
2013-2-23,46.2,33.9,21.9,25.8,21.1,17.0,82,61,42,30.13,29.93,3,1,5,0.00
2013-2-24,59.0,46.0,33.8,39.5,32.3,24.2,76,60,46,29.95,29.71,11,4,18,0.00
2013-2-25,46.7,39.4,32.9,37.0,34.4,31.3,95,83,62,29.78,29.43,10,6,18,1.38
2013-2-26,41.7,36.8,32.7,33.1,31.6,28.4,95,82,69,29.90,29.46,11,6,23,0.24
2013-2-27,46.3,37.1,31.7,31.3,27.9,25.8,85,70,45,30.14,29.88,11,4,20,0.00
2013-2-28,45.0,37.2,30.8,30.0,27.7,25.8,82,69,54,30.21,30.13,8,4,14,0.00
2013-3-1,38.1,35.1,31.0,26.9,23.6,17.5,71,63,53,30.31,30.18,10,5,16,0.00
2013-3-2,47.5,36.2,25.5,21.8,19.9,18.3,77,53,35,30.38,30.16,7,3,12,0.00
2013-3-3,63.1,48.6,33.5,34.5,27.9,20.4,64,46,31,30.16,29.62,11,5,18,0.00
2013-3-4,74.2,55.8,45.3,43.1,32.4,-99.9,68,48,31,29.90,29.50,14,-45,26,0.00
2013-3-5,48.5,41.5,35.1,35.6,24.1,17.0,84,52,34,30.35,29.91,14,8,22,0.04
2013-3-6,50.7,39.7,28.1,25.2,21.6,18.7,68,50,31,30.43,30.18,5,2,10,0.00
2013-3-7,66.1,53.4,38.4,31.9,29.0,24.8,61,41,26,30.20,30.02,11,5,18,0.00
2013-3-8,58.9,53.7,47.7,42.8,37.2,31.3,70,54,42,30.12,29.91,10,6,21,0.00
2013-3-9,62.6,58.7,55.1,56.9,46.8,37.7,88,66,45,29.91,29.58,12,6,21,0.02
2013-3-10,42.9,36.9,32.3,38.3,30.7,23.8,90,78,70,30.01,29.68,11,6,17,0.01
2013-3-11,53.2,39.7,29.6,25.1,21.3,15.8,75,52,24,30.02,29.94,8,3,13,0.00
2013-3-12,59.4,48.0,37.7,37.8,28.1,20.3,73,47,30,30.31,29.99,9,2,17,0.00
2013-3-13,57.3,48.3,35.8,26.5,24.4,21.9,60,40,27,30.46,30.29,5,1,10,0.00
2013-3-14,79.7,64.5,44.6,43.9,37.6,24.9,51,38,27,30.29,30.01,7,3,16,0.00
2013-3-15,83.9,62.7,53.3,50.5,33.7,-99.9,72,43,28,30.04,29.67,8,-80,15,0.00
2013-3-16,69.4,63.1,57.7,46.3,45.5,44.6,63,53,42,29.72,29.63,5,2,9,0.00
2013-3-17,44.2,43.0,41.2,40.4,39.5,38.2,89,87,86,29.79,29.72,4,4,6,0.00
2013-3-19,60.6,51.7,38.5,30.8,27.3,20.0,65,40,28,30.21,30.06,8,3,14,0.00
2013-3-20,53.0,43.7,35.7,32.2,25.9,19.2,81,53,30,30.37,30.04,10,3,17,0.00
2013-3-21,42.8,39.8,37.5,33.6,26.7,20.4,81,60,41,30.03,29.70,10,4,19,0.01
2013-3-22,46.9,41.3,36.7,37.7,36.2,33.5,93,82,69,29.89,29.75,6,3,12,0.33
2013-3-23,42.3,40.5,37.4,40.3,37.9,35.1,94,91,82,29.89,29.69,8,3,10,0.05
2013-3-24,39.7,34.6,31.4,35.7,26.9,19.5,94,75,48,30.17,29.74,13,8,22,0.06
2013-3-25,38.9,33.6,28.2,22.7,20.1,16.6,73,58,43,30.37,30.16,11,6,16,0.00
2013-3-26,52.8,39.0,25.9,24.2,21.6,19.1,77,52,31,30.45,30.25,4,2,10,0.00
2013-3-27,66.8,51.8,36.6,36.0,28.6,23.0,59,42,30,30.26,30.03,11,5,19,0.00
2013-3-28,73.1,57.4,49.4,51.5,32.9,-99.9,63,47,37,30.12,29.98,11,-67,12,0.00
2013-3-29,71.3,63.0,57.4,58.0,54.7,51.1,90,75,63,30.07,29.99,7,2,12,0.00
2013-3-30,77.0,64.7,54.4,60.7,56.3,51.8,93,75,55,30.00,29.74,9,3,15,0.54
2013-3-31,71.3,61.5,51.5,57.8,48.0,43.4,94,64,39,29.95,29.80,13,3,17,0.00
2013-4-1,58.9,50.9,44.9,44.4,40.0,31.4,82,67,53,30.11,29.91,10,4,17,0.00
2013-4-2,44.6,40.4,37.7,38.5,35.5,29.2,93,84,57,30.21,30.11,8,4,12,0.52
2013-4-3,44.0,40.9,39.1,38.7,34.6,30.4,93,78,64,30.22,30.13,6,3,12,0.53
2013-4-4,60.9,50.0,38.9,40.9,36.8,32.0,93,64,37,30.17,30.05,6,2,13,0.28
2013-4-5,70.6,54.5,40.4,44.8,41.2,37.7,91,64,35,30.17,29.87,8,2,12,0.00
2013-4-6,78.2,66.5,56.8,52.6,49.0,44.5,70,55,39,29.87,29.70,11,5,23,0.00
2013-4-7,65.8,63.3,58.0,59.1,56.4,52.4,87,78,64,29.80,29.64,10,4,17,0.00
2013-4-8,74.3,68.2,61.8,62.2,59.8,57.5,92,75,65,29.68,29.56,10,6,19,0.00
2013-4-9,78.8,70.9,48.3,63.8,60.4,41.6,80,70,59,29.74,29.55,10,6,18,0.00
2013-4-10,45.3,38.5,35.6,39.8,34.8,31.0,91,87,79,29.94,29.72,11,6,18,0.38
2013-4-11,55.8,45.7,34.5,34.6,30.5,26.1,82,57,40,29.93,29.74,7,3,10,0.00
2013-4-12,65.1,50.6,38.7,36.9,32.9,27.9,84,53,33,29.99,29.79,7,2,12,0.00
2013-4-13,74.8,59.7,47.0,49.4,43.3,35.3,88,56,35,30.00,29.66,10,4,15,0.28
2013-4-14,80.9,69.5,59.0,58.0,50.7,44.4,66,52,39,29.67,29.41,12,6,24,0.00
2013-4-15,74.6,62.2,53.0,57.1,44.6,34.2,71,53,37,29.80,29.60,11,6,21,0.00
2013-4-16,56.1,51.9,49.2,49.2,45.8,41.7,89,80,66,29.93,29.77,8,5,15,0.00
2013-4-17,81.4,67.5,50.5,68.8,60.3,47.1,94,79,60,29.88,29.50,12,5,18,0.36
2013-4-18,45.4,42.7,40.6,38.5,32.0,25.7,85,66,54,30.05,29.72,10,7,18,0.64
2013-4-19,63.9,48.9,35.2,34.6,28.6,22.8,68,48,28,30.13,29.99,6,3,13,0.00
2013-4-20,72.2,58.8,45.6,40.5,36.3,29.9,71,46,22,30.11,29.96,8,3,13,0.00
2013-4-21,70.6,62.3,55.9,44.4,41.4,38.9,59,47,34,30.15,30.01,8,4,16,0.00
2013-4-22,76.4,64.9,52.1,53.6,47.0,40.9,68,53,44,30.07,29.77,11,5,17,0.00
2013-4-23,68.5,42.4,36.5,53.4,38.3,32.5,92,86,54,30.18,29.75,10,6,22,0.36
2013-4-24,59.4,46.2,34.0,32.5,29.5,24.3,86,56,31,30.30,30.17,8,3,16,0.00
2013-4-25,71.1,57.4,39.9,38.1,32.7,29.1,71,43,24,30.33,30.11,6,2,10,0.00
2013-4-26,62.6,56.2,52.9,52.0,46.8,38.5,94,73,41,30.13,30.00,8,4,14,0.27
2013-4-27,57.3,53.8,51.5,51.9,50.8,50.1,96,90,79,30.04,29.94,11,3,12,0.12
2013-4-28,80.9,72.4,57.8,58.9,55.8,50.6,77,57,41,29.97,29.75,5,3,11,0.01
2013-4-29,88.2,74.4,60.5,63.0,57.5,51.8,89,59,34,29.77,29.62,10,4,16,0.00
2013-4-30,84.6,75.0,63.8,60.2,56.1,50.5,79,54,32,29.73,29.64,10,5,15,0.00
2013-5-1,83.4,74.2,60.0,64.1,59.9,47.2,80,62,47,29.99,29.72,9,4,13,0.00
2013-5-2,58.6,43.3,36.8,46.5,38.0,33.9,91,82,64,30.35,30.00,12,8,21,0.33
2013-5-3,60.0,48.7,37.2,34.1,30.9,26.8,87,54,31,30.33,29.93,12,6,19,0.00
2013-5-4,48.8,44.9,40.1,44.2,38.6,31.7,91,79,53,30.01,29.85,7,3,15,0.17
2013-5-5,59.9,51.1,43.6,49.7,45.8,40.9,93,82,68,30.10,30.01,6,2,9,0.01
2013-5-6,71.5,56.6,48.1,54.9,50.2,45.6,94,80,54,30.09,29.95,5,1,11,0.01
2013-5-7,79.8,65.9,50.3,55.8,51.4,47.6,94,64,35,30.03,29.88,5,1,10,0.00
2013-5-8,83.5,72.3,62.5,61.0,55.1,50.9,84,56,39,29.94,29.77,9,4,16,0.09
2013-5-9,74.0,65.2,58.4,64.2,61.0,55.1,95,87,66,29.89,29.76,9,2,12,0.78
2013-5-10,72.4,65.2,59.0,63.0,57.0,52.1,94,76,55,30.01,29.85,7,3,13,0.02
2013-5-11,76.6,67.9,57.3,58.4,44.2,36.9,83,44,29,30.17,30.00,11,4,20,0.02
2013-5-12,73.3,61.9,47.9,45.2,39.5,32.5,68,46,27,30.23,30.05,5,1,11,0.00
2013-5-13,91.8,74.4,58.0,57.8,50.8,42.8,61,45,29,30.07,29.92,5,2,13,0.00
2013-5-14,92.6,78.8,64.5,58.6,53.5,47.7,56,43,28,29.95,29.81,6,2,16,0.00
2013-5-15,75.8,70.3,63.8,67.4,63.1,53.6,94,79,52,29.87,29.71,9,3,15,0.70
2013-5-16,77.1,67.9,62.7,66.1,62.4,60.0,93,83,64,29.80,29.71,4,1,7,0.01
2013-5-17,81.1,71.6,61.5,69.7,65.3,60.1,96,81,65,29.83,29.76,4,1,10,0.01
2013-5-18,88.2,78.7,71.3,75.3,71.4,68.6,92,79,63,29.79,29.63,7,3,16,0.00
2013-5-19,82.7,76.1,67.0,71.3,67.2,61.6,88,75,59,29.79,29.45,9,4,13,0.21
2013-5-20,85.0,76.0,70.9,72.7,69.2,67.0,91,80,66,29.68,29.53,7,2,16,0.02
2013-5-21,70.6,63.1,58.3,67.8,59.1,55.8,93,87,78,29.84,29.57,9,2,15,0.54
2013-5-22,82.3,68.3,54.8,58.5,56.1,53.4,96,69,42,29.85,29.73,4,1,12,0.01
2013-5-23,69.4,63.0,61.1,60.4,58.1,53.8,94,85,66,30.07,29.84,6,2,13,0.34
2013-5-24,79.7,69.3,58.4,66.4,61.3,56.1,93,77,62,30.15,30.03,7,3,13,0.00
2013-5-25,84.4,74.4,65.1,69.5,63.6,57.5,82,70,55,30.11,29.92,7,4,14,0.00
2013-5-26,84.2,76.4,68.9,70.1,67.3,64.2,87,74,60,29.99,29.83,7,4,14,0.00
2013-5-27,84.2,77.6,70.9,70.1,68.0,64.2,90,73,61,29.85,29.62,8,5,19,0.00
2013-5-28,81.5,77.8,73.8,68.5,67.3,66.0,81,70,62,29.72,29.62,8,4,22,0.00
2013-5-29,78.3,74.4,64.8,69.3,66.5,61.1,92,77,71,29.73,29.58,12,5,18,0.45
2013-5-30,82.5,71.9,63.2,73.0,67.9,61.4,95,88,72,29.68,29.55,8,3,20,2.07
2013-5-31,88.6,80.5,70.9,74.7,72.2,66.8,93,77,60,29.66,29.50,12,4,18,0.02
2013-6-1,81.0,71.5,64.9,67.3,60.3,54.2,92,70,45,29.93,29.57,7,2,12,0.01
2013-6-2,71.5,64.9,58.3,57.5,54.6,51.0,81,70,57,30.02,29.93,6,3,12,0.00
2013-6-3,81.8,69.5,55.5,65.5,58.8,52.7,91,70,50,29.97,29.76,6,2,12,0.00
2013-6-4,81.9,74.2,65.4,68.5,65.6,62.2,93,75,63,29.89,29.68,10,3,18,0.48
2013-6-5,83.0,73.6,65.2,68.7,66.1,63.4,94,78,58,29.90,29.76,6,3,13,0.87
2013-6-6,77.8,70.7,64.8,63.8,58.7,53.1,90,68,43,29.89,29.83,7,4,14,0.00
2013-6-7,82.4,72.5,60.6,58.2,55.8,54.0,82,58,40,29.93,29.82,6,1,12,0.00
2013-6-8,82.8,74.5,64.1,63.5,59.0,54.3,77,59,45,29.85,29.69,7,2,17,0.00
2013-6-9,90.8,78.9,68.1,65.0,61.5,56.8,80,57,33,29.82,29.67,7,2,13,0.00
2013-6-10,97.4,84.6,71.7,70.4,66.6,59.1,78,57,37,29.83,29.73,3,1,10,0.00
2013-6-11,96.2,85.7,74.5,72.6,69.0,65.5,75,59,40,29.85,29.75,6,2,14,0.00
2013-6-12,96.7,86.0,76.3,73.4,70.8,68.4,82,62,44,29.85,29.77,5,2,13,0.00
2013-6-13,96.8,85.7,75.9,73.0,69.8,66.2,73,60,45,29.93,29.81,4,2,7,0.00
2013-6-14,97.9,86.4,76.7,76.6,72.1,68.2,76,63,45,29.89,29.77,4,2,13,0.00
2013-6-15,86.5,78.9,72.9,75.3,72.2,67.8,90,80,65,29.89,29.83,5,2,13,0.06
2013-6-16,93.2,77.9,70.7,75.6,70.3,65.0,94,79,54,29.90,29.75,5,1,14,0.05
2013-6-17,81.6,72.9,66.7,69.4,66.9,64.6,95,82,62,29.91,29.74,9,2,13,0.80
2013-6-18,89.5,78.5,68.5,70.2,66.1,59.4,90,69,38,29.95,29.83,4,2,8,0.00
2013-6-19,86.7,79.0,69.1,70.0,67.0,64.5,86,68,53,29.94,29.83,6,2,13,0.00
2013-6-20,92.3,83.1,73.7,76.2,71.5,66.9,81,69,56,29.92,29.81,7,4,17,0.00
2013-6-21,93.7,85.2,77.6,73.8,71.1,67.6,82,64,44,29.93,29.84,6,4,13,0.00
2013-6-22,92.3,84.2,76.1,72.2,69.4,66.3,80,62,45,29.91,29.77,8,4,14,0.00
2013-6-23,93.1,85.0,77.6,72.3,70.4,68.1,79,63,46,29.84,29.75,8,5,17,0.00
2013-6-24,91.8,84.2,76.5,71.9,69.8,66.2,80,63,44,29.90,29.78,6,4,15,0.00
2013-6-25,89.4,83.7,78.0,73.3,71.5,69.7,79,67,56,29.82,29.68,7,4,17,0.00
2013-6-26,97.2,87.3,78.9,77.3,73.1,67.9,73,63,51,29.79,29.68,4,2,13,0.00
2013-6-27,100.1,89.4,78.4,78.7,74.1,64.4,83,62,44,29.85,29.71,7,1,12,0.00
2013-6-28,97.2,87.2,78.4,71.3,66.5,60.0,71,52,35,29.87,29.68,6,3,13,0.00
2013-6-29,91.8,82.6,72.3,61.1,58.1,53.9,66,45,32,29.83,29.71,9,4,17,0.00
2013-6-30,83.2,76.1,67.9,57.6,56.1,53.9,69,51,40,29.90,29.78,10,5,20,0.00
2013-7-1,85.1,75.2,65.0,59.1,55.0,48.5,76,52,30,29.99,29.90,8,4,14,0.00
2013-7-2,86.2,76.4,64.6,56.5,52.9,49.3,67,46,31,30.03,29.93,5,1,11,0.00
2013-7-3,87.1,76.2,62.7,58.8,53.7,50.5,72,48,30,30.02,29.89,4,1,8,0.00
2013-7-4,92.0,78.2,65.7,67.5,60.0,52.8,78,55,35,29.95,29.83,8,1,12,0.32
2013-7-5,92.4,80.7,67.7,65.7,62.4,59.3,80,56,34,29.92,29.79,6,2,12,0.00
2013-7-6,88.6,81.5,73.7,67.7,63.9,61.2,68,56,47,29.88,29.81,6,2,11,0.00
2013-7-7,94.5,84.7,74.7,70.5,66.6,63.6,74,56,41,29.92,29.83,5,2,12,0.00
2013-7-8,96.0,86.0,77.0,74.9,70.5,66.5,75,61,46,29.97,29.88,6,2,10,0.00
2013-7-9,100.0,90.1,77.8,73.7,71.4,69.8,77,56,40,29.95,29.82,5,2,13,0.00
2013-7-10,102.3,91.8,80.2,73.2,69.7,66.5,63,50,34,29.88,29.77,4,1,6,0.00
2013-7-11,101.9,89.3,78.7,74.6,72.5,69.9,77,59,40,29.88,29.76,6,1,10,0.00
2013-7-12,96.4,87.4,78.3,74.7,71.6,69.0,75,60,47,29.90,29.82,6,2,11,0.00
2013-7-13,95.9,86.3,76.8,70.4,67.1,62.4,71,54,42,29.92,29.80,5,2,16,0.00
2013-7-14,88.2,79.1,71.7,66.7,63.6,59.4,79,60,43,29.95,29.82,5,1,10,0.08
2013-7-15,78.8,72.5,65.4,68.4,65.3,61.3,94,79,67,30.09,29.94,8,1,13,0.38
2013-7-16,90.5,79.6,71.0,71.0,68.8,66.1,92,71,48,30.15,30.07,10,2,14,0.01
2013-7-17,93.6,84.2,74.4,73.2,70.0,66.7,86,64,43,30.20,30.07,5,1,9,0.00
2013-7-18,96.3,86.7,75.9,74.0,70.8,67.6,84,61,41,30.10,29.91,5,1,10,0.00
2013-7-19,99.5,87.8,75.6,73.9,70.5,67.7,82,59,37,29.93,29.78,3,0,10,0.00
2013-7-20,96.5,85.5,74.0,74.1,70.3,67.6,81,62,44,29.85,29.70,5,1,10,0.00
2013-7-21,91.0,78.7,70.1,77.3,72.3,68.0,95,82,60,29.83,29.70,8,2,12,1.22
2013-7-22,99.5,86.2,77.0,77.1,73.4,67.0,81,67,45,29.81,29.65,10,1,14,0.88
2013-7-23,102.3,91.0,68.4,76.2,73.8,65.8,92,59,40,29.83,29.65,21,1,28,0.71
2013-7-24,91.0,79.1,68.4,71.6,69.3,66.4,95,74,51,29.92,29.72,18,2,19,0.16
2013-7-25,87.0,81.1,74.0,73.2,70.7,66.4,86,71,53,30.00,29.88,4,1,7,0.00
2013-7-26,81.3,75.8,69.9,72.8,70.7,66.8,94,85,70,29.95,29.82,7,2,12,0.63
2013-7-27,86.7,76.0,66.9,68.1,64.2,60.1,95,70,44,29.99,29.86,5,1,10,0.01
2013-7-28,86.2,77.0,67.9,69.4,64.7,59.2,84,66,54,29.94,29.85,5,2,12,0.00
2013-7-29,88.4,80.7,72.6,75.3,71.3,66.0,84,74,64,29.91,29.80,7,4,15,0.02
2013-7-30,93.7,80.5,70.7,76.0,72.5,68.8,95,78,54,29.93,29.86,7,0,11,0.95
2013-7-31,92.6,83.5,75.5,76.3,73.5,70.6,93,74,52,29.98,29.89,6,2,11,0.00
2013-8-1,93.9,83.5,72.2,71.2,68.3,60.2,89,63,35,30.00,29.84,4,1,8,0.00
2013-8-2,95.4,84.9,77.8,79.4,74.3,69.2,84,71,57,29.87,29.70,6,2,11,0.00
2013-8-3,87.2,58.7,76.8,74.6,23.5,-99.9,89,53,62,29.95,29.75,10,-284,11,0.04
2013-8-4,87.7,82.0,77.5,78.1,74.9,71.2,89,80,70,29.99,29.84,6,2,12,0.00
2013-8-5,101.2,87.9,76.1,76.7,74.4,72.1,89,67,45,29.88,29.69,3,1,9,0.00
2013-8-6,101.1,89.8,77.9,75.0,72.6,70.3,80,58,41,29.76,29.65,4,1,11,0.00
2013-8-7,95.3,87.4,81.2,79.2,73.6,70.5,79,64,53,29.78,29.69,6,2,12,0.00
2013-8-8,85.5,79.6,71.1,76.6,72.5,68.1,92,79,65,29.84,29.72,5,1,17,0.16
2013-8-9,85.3,76.7,69.8,73.8,71.1,67.4,96,83,65,29.97,29.79,7,2,12,1.32
2013-8-10,86.1,76.0,68.2,71.1,68.2,64.4,93,78,59,30.03,29.94,5,2,11,0.00
2013-8-11,93.2,81.0,72.3,74.0,71.2,68.6,90,73,53,30.00,29.90,3,0,5,0.00
2013-8-12,87.4,79.3,72.5,75.4,72.9,69.0,94,81,65,29.98,29.84,9,1,14,0.84
2013-8-13,85.1,75.3,70.1,74.0,70.6,67.4,95,86,65,29.98,29.86,8,1,15,1.12
2013-8-14,84.8,75.1,66.2,69.2,64.3,60.5,92,71,48,30.05,29.94,4,2,7,0.00
2013-8-15,84.8,74.1,65.2,65.6,62.1,58.7,89,67,51,30.03,29.89,6,1,11,0.47
2013-8-16,83.5,73.6,65.3,66.1,64.3,62.3,96,74,52,30.02,29.89,5,1,9,0.24
2013-8-17,82.1,73.7,64.3,63.0,60.9,58.0,88,66,46,30.07,29.96,4,1,10,0.00
2013-8-18,86.6,75.8,63.5,67.4,63.3,60.7,91,67,46,30.06,29.94,5,1,9,0.00
2013-8-19,87.8,78.3,69.2,69.5,66.1,63.8,86,68,50,30.02,29.90,5,1,7,0.00
2013-8-20,91.1,80.6,70.5,70.3,66.2,63.1,81,63,44,29.98,29.89,4,1,8,0.00
2013-8-21,95.8,83.4,72.1,70.5,67.1,63.3,82,60,38,29.99,29.91,3,1,8,0.00
2013-8-22,94.2,85.1,74.4,73.3,69.1,66.7,78,60,43,30.00,29.88,4,1,9,0.00
2013-8-23,91.7,81.3,75.1,75.5,70.6,67.5,90,71,51,29.97,29.87,5,1,10,0.27
2013-9-1,91.4,86.4,81.2,74.8,73.6,72.1,75,66,56,29.81,29.70,4,2,11,0.00
2013-9-2,87.6,69.5,71.3,72.7,42.1,-99.9,88,52,42,29.93,29.80,9,-136,13,0.00
2013-9-3,90.0,78.2,65.9,65.5,62.0,57.3,87,60,36,29.98,29.88,5,1,9,0.00
2013-9-4,94.1,69.2,65.2,69.6,38.9,-99.9,85,48,39,30.04,29.92,4,-153,7,0.00
2013-9-5,95.7,82.9,70.8,66.2,63.6,60.2,75,54,37,30.07,29.95,4,1,7,0.00
2013-9-6,94.7,83.2,71.6,68.3,64.2,60.9,70,54,38,30.03,29.87,4,1,9,0.00
2013-9-7,98.4,86.5,73.2,70.7,65.5,62.6,71,51,34,29.92,29.80,4,1,7,0.00
2013-9-8,100.2,76.6,75.6,70.2,44.0,-99.9,72,43,34,29.87,29.76,5,-136,11,0.00
2013-9-9,96.2,86.1,74.0,70.0,64.9,62.3,68,51,36,29.88,29.80,5,1,11,0.00
2013-9-10,93.8,84.3,74.3,68.9,64.6,61.0,69,53,36,30.00,29.85,5,1,9,0.00
2013-9-11,95.9,73.3,73.5,67.9,40.4,-99.9,74,43,36,30.05,29.91,4,-148,9,0.00
2013-9-12,95.0,82.8,73.6,70.1,68.3,65.7,82,63,42,30.00,29.89,7,2,12,0.00
2013-9-13,85.6,76.9,70.3,69.5,59.3,51.6,87,57,37,29.99,29.87,5,2,14,0.00
2013-9-14,84.5,64.1,63.3,61.8,33.5,-99.9,70,46,45,29.98,29.85,4,-151,9,0.00
2013-9-15,89.0,69.9,67.4,68.0,40.7,-99.9,63,46,46,29.94,29.86,4,-127,9,0.00
2013-9-16,85.4,63.9,70.9,70.2,38.2,-99.9,90,60,54,30.10,29.92,6,-176,11,0.09
2013-9-17,83.3,73.7,68.9,69.3,67.4,65.6,92,82,61,30.04,29.87,4,1,7,0.19
2013-9-18,91.8,81.3,72.2,72.8,69.5,66.8,86,69,50,29.90,29.77,9,2,15,0.00
2013-9-19,93.0,78.2,70.1,74.4,69.9,64.6,90,77,49,29.87,29.74,7,1,12,0.50
2013-9-20,71.3,67.9,61.6,67.7,61.5,54.7,95,81,58,29.93,29.84,7,2,13,0.45
2013-9-21,78.7,53.5,56.3,55.1,23.3,-99.9,86,53,38,29.97,29.87,4,-194,8,0.00
2013-10-4,86.4,82.7,77.6,71.3,68.7,67.2,81,63,55,29.79,29.68,7,4,16,0.00
2013-10-5,78.0,53.8,50.0,67.4,32.7,-99.9,93,60,40,30.04,29.78,10,-102,19,1.02
2013-10-6,65.6,51.0,50.2,45.3,29.0,-99.9,82,54,44,30.00,29.94,6,-80,13,0.00
2013-10-7,74.8,63.4,50.1,48.8,37.3,-99.9,73,43,30,30.13,30.02,3,-35,15,0.00
2013-10-8,73.9,59.6,53.4,53.7,36.5,-99.9,76,53,40,30.07,29.94,6,-81,15,0.00
2013-10-9,77.1,62.3,54.9,58.2,42.2,-99.9,81,57,50,30.02,29.91,5,-70,11,0.00
2013-10-10,79.6,61.1,59.0,61.9,36.6,-99.9,83,55,50,29.99,29.78,7,-127,13,0.00
2013-10-11,81.2,72.2,63.7,68.2,63.5,56.2,86,75,63,29.79,29.69,5,3,15,0.00
2013-10-12,72.9,66.5,56.8,68.3,55.4,50.2,92,69,49,30.08,29.77,8,3,16,0.10
2013-10-13,75.3,66.6,59.6,63.6,55.6,49.9,75,68,60,30.22,30.08,3,2,7,0.00
2013-10-14,67.2,63.0,57.8,63.3,58.0,52.3,95,84,65,30.13,29.83,7,4,14,1.13
2013-10-15,66.9,58.9,54.5,65.4,51.9,45.3,95,78,61,30.04,29.80,8,3,14,0.25
2013-10-16,59.5,51.8,44.4,45.3,41.9,38.9,88,70,54,30.12,29.99,5,2,10,0.00
2013-10-17,67.0,54.6,41.9,49.4,44.8,40.0,95,72,47,30.04,29.90,2,0,6,0.01
2013-10-18,54.2,47.4,40.0,48.4,43.2,37.3,93,85,68,30.12,29.96,8,3,14,0.23
2013-10-19,64.5,48.3,34.4,43.5,37.7,32.8,95,70,38,30.13,29.96,4,0,7,0.01
2013-10-20,69.0,56.5,43.2,45.0,41.4,37.4,84,60,33,29.96,29.77,5,1,13,0.00
2013-10-21,59.0,52.2,44.0,47.2,38.8,-99.9,86,65,43,30.07,29.88,6,-20,12,0.00
2013-10-22,72.1,57.8,41.6,47.2,42.7,37.7,89,60,37,30.06,29.92,6,1,13,0.00
2013-10-23,66.9,54.9,43.9,47.6,42.4,38.4,83,64,46,30.13,29.94,3,1,7,0.00
2013-10-24,55.7,49.8,43.7,45.6,37.9,32.6,89,65,45,30.36,30.02,7,3,15,0.00
2013-10-25,58.4,48.1,38.0,40.8,34.6,30.5,79,61,42,30.44,30.17,5,2,11,0.00
2013-10-26,67.1,55.8,47.9,54.7,47.7,40.4,87,74,64,30.17,30.03,3,0,7,0.00
2013-10-27,66.7,54.7,42.0,51.0,38.8,33.9,84,58,32,30.07,29.91,4,1,7,0.00
2013-10-28,69.2,60.9,52.0,58.7,54.9,47.5,94,81,63,30.08,29.94,6,2,13,0.01
2013-10-29,74.4,68.0,61.6,67.8,63.8,58.2,92,87,79,29.99,29.84,6,3,12,0.04
2013-10-30,71.0,67.3,63.7,67.4,64.5,61.8,96,91,87,29.91,29.67,9,3,14,1.12
2013-10-31,69.8,62.2,52.1,65.0,55.1,44.8,97,79,52,29.73,29.48,9,2,18,0.29
2013-11-1,69.1,58.3,48.8,46.8,42.6,39.8,82,58,35,30.00,29.72,8,2,17,0.00
2013-11-2,60.5,52.5,45.1,41.4,35.9,31.7,70,55,34,30.22,30.00,9,3,20,0.00
2013-11-3,60.9,52.6,43.0,43.1,39.3,35.3,79,62,44,30.16,29.90,8,3,17,0.00
2013-11-4,65.2,58.0,52.4,54.8,49.9,42.7,88,75,62,30.04,29.88,6,4,17,0.00
2013-11-5,63.7,59.3,55.6,62.2,57.6,53.6,96,94,88,30.03,29.82,6,3,16,1.14
2013-11-6,60.2,45.9,38.9,58.8,39.4,35.3,95,79,58,30.33,29.87,9,4,16,0.24
2013-11-7,63.4,48.9,33.8,43.8,37.6,32.5,96,69,37,30.43,30.28,2,0,7,0.01
2013-11-8,66.1,54.5,41.8,41.2,37.7,34.5,82,56,31,30.28,29.98,8,2,19,0.00
2013-11-9,67.5,57.3,49.8,46.4,43.8,40.6,77,62,39,30.21,30.00,4,1,11,0.00
2013-11-10,66.9,57.7,50.0,48.9,46.8,44.8,85,68,50,30.31,30.19,2,0,4,0.00
2013-11-11,72.0,57.9,42.6,56.3,48.8,35.9,87,73,55,30.41,30.10,14,3,24,0.00
2013-11-12,42.6,34.2,29.4,35.9,20.0,15.6,77,57,39,30.76,30.41,12,6,22,0.00
2013-11-13,50.3,38.5,24.3,25.0,22.1,17.8,87,54,33,30.69,30.28,5,1,13,0.00
2013-11-14,54.8,44.1,32.8,34.7,27.4,22.7,68,53,36,30.28,29.97,6,2,15,0.00
2013-11-15,60.8,52.4,43.2,51.5,45.1,34.6,90,77,62,29.98,29.74,7,3,18,0.26
2013-11-16,73.1,65.4,54.4,64.6,59.3,51.5,91,81,63,29.74,29.47,9,5,22,0.15
2013-11-17,71.6,66.2,52.2,64.6,42.7,22.1,85,48,22,30.04,29.45,8,3,17,0.00
2013-11-18,62.9,53.3,43.6,38.7,30.6,23.9,62,43,25,30.22,30.03,4,1,9,0.00
2013-11-19,58.9,54.4,51.8,33.4,29.9,27.5,48,39,31,30.17,29.94,8,4,14,0.00
2013-11-20,59.4,54.3,45.2,46.9,37.7,30.3,74,54,45,29.96,29.80,9,4,16,0.17
2013-11-21,59.2,48.8,33.7,51.9,45.1,30.2,93,88,62,30.34,29.87,11,4,17,0.14
2013-11-22,33.7,31.3,29.8,30.2,27.0,24.4,92,84,76,30.55,30.34,10,5,20,0.10
2013-11-23,39.3,33.2,26.9,27.3,21.2,14.0,84,62,40,30.67,30.54,8,3,14,0.00
2013-11-24,31.1,26.8,22.3,18.1,15.1,13.4,71,61,54,30.68,30.33,6,2,11,0.00
2013-11-25,35.8,33.1,30.1,31.0,25.9,16.1,86,75,54,30.34,30.18,4,1,9,0.00
2013-11-26,46.8,37.6,29.7,30.2,25.8,13.6,81,63,45,30.38,30.16,11,5,19,0.00
2013-11-27,39.3,30.0,21.2,15.9,12.9,9.9,66,49,35,30.46,30.28,9,2,16,0.00
2013-11-28,58.5,42.3,29.5,33.3,24.7,15.2,60,50,37,30.40,30.25,4,2,9,0.00
2013-11-29,56.1,44.3,32.3,31.1,27.3,24.1,76,53,32,30.45,30.24,8,3,13,0.00
2013-11-30,62.3,49.7,41.0,46.9,39.9,30.5,88,69,55,30.25,30.04,6,3,12,0.00
2013-12-1,54.5,49.0,41.8,50.6,46.4,39.9,95,91,86,30.07,29.84,2,0,6,0.00
2013-12-2,58.5,50.8,46.5,48.9,46.8,45.1,96,87,70,29.84,29.60,4,1,8,0.00
2013-12-3,60.0,51.3,43.9,54.0,48.3,42.6,100,90,74,29.60,29.45,5,2,9,0.01
2013-12-4,49.9,41.3,29.4,47.7,36.8,21.8,98,84,72,30.01,29.43,9,4,15,0.01
2013-12-5,29.8,24.3,20.7,22.1,15.2,11.5,92,69,55,30.31,30.00,10,7,19,0.00
2013-12-6,22.2,19.2,14.4,17.2,13.1,4.8,90,78,59,30.60,30.26,10,6,17,0.00
2013-12-7,22.2,17.5,9.4,13.9,8.1,3.3,76,66,59,30.67,30.31,6,3,13,0.00
2013-12-8,29.5,26.1,21.7,26.7,22.2,13.8,93,85,70,30.31,29.99,5,2,10,0.00
2013-12-9,27.6,22.9,18.8,22.6,17.0,13.6,85,78,63,30.41,30.18,8,4,15,0.00
2013-12-10,36.4,25.9,14.4,22.7,17.1,11.5,89,70,53,30.45,30.23,7,2,13,0.01
2013-12-11,36.5,29.4,22.8,26.2,20.3,14.9,87,69,55,30.61,30.24,9,2,18,0.00
2013-12-12,42.9,31.6,20.4,28.6,21.9,12.6,92,68,52,30.60,30.20,6,2,13,0.01
2013-12-13,41.6,38.1,35.7,37.8,33.6,28.2,95,84,70,30.20,29.78,10,4,19,0.40
2013-12-14,39.8,35.3,29.5,38.5,29.6,22.9,95,80,66,30.25,29.80,11,4,19,0.01
2013-12-15,60.0,40.7,25.4,35.1,28.0,22.4,90,64,34,30.25,30.07,3,1,11,0.00
2013-12-16,69.9,52.1,39.5,35.9,32.1,29.6,68,49,26,30.10,29.99,4,1,9,0.00
2013-12-17,59.7,47.5,36.6,36.1,32.0,29.1,77,57,34,30.27,30.08,5,1,10,0.00
2013-12-18,67.9,52.9,37.7,45.0,36.1,29.5,76,54,35,30.22,29.83,8,4,18,0.00
2013-12-19,56.8,13.3,53.7,46.2,-65.1,-99.9,75,16,65,29.83,29.59,9,-758,16,0.00
2013-12-20,43.3,23.1,28.2,37.2,-5.5,-99.9,92,60,69,29.97,29.58,10,-238,16,0.04
2013-12-21,32.2,30.6,28.4,32.0,28.7,25.8,100,93,90,29.83,29.49,0,0,0,0.00
2013-12-22,31.8,28.8,26.3,29.7,25.3,22.4,92,87,81,30.39,29.74,0,0,0,0.00
2013-12-23,27.2,23.8,18.5,22.8,19.9,15.3,92,85,77,30.61,30.38,0,0,0,0.00
2013-12-24,39.7,27.0,15.5,34.6,23.3,12.8,92,86,75,30.60,30.18,5,1,12,0.37
2013-12-25,40.2,32.9,27.4,35.3,30.2,25.1,94,90,80,30.38,30.26,5,1,7,0.24
2013-12-26,49.4,44.1,27.6,35.3,32.4,26.1,94,65,54,30.37,30.25,4,2,6,0.32
2013-12-27,42.3,42.3,42.3,30.2,30.2,30.2,62,62,62,30.38,30.38,2,2,3,0.00
2013-12-28,46.4,46.3,46.2,37.1,36.8,36.6,70,70,69,30.11,30.10,5,5,5,0.00
2013-12-30,38.7,37.1,36.3,17.0,16.5,16.3,44,43,41,30.28,30.26,0,0,0,0.00
2013-12-31,56.2,48.7,40.0,28.6,25.1,21.8,58,41,27,30.31,30.10,9,4,14,0.00
2014-1-1,52.8,38.8,18.1,35.7,27.1,14.4,86,64,50,30.26,29.84,12,5,20,0.00
2014-1-2,32.2,22.0,13.1,16.9,11.9,5.0,85,66,52,30.48,30.26,10,3,16,0.00